[[{"header":{"parameterUnit":"m.s-1","parameterCategory":1,"la1":30.2991,"la2":30.254,"lo1":-89.0895,"lo2":-89.0444,"dy":0.0017,"dx":0.0017,"nx":28,"ny":28,"refTime":"2024-07-25T09:00:00:Z","depth":0,"parameterNumber":2,"parameterNumberName":"U-component_of_WINDS"},"data":[0,0,0,0,0,0,0,0,0,0,0,0,0,0,0,0,0,0,0,0,0,0,0,0,0,0,0,0,0,0,0,0,0,0,0,0,0,0,0,0,0,0,0,0,0,0,0,0,0,0,0,0,0,0,0,0,0,0,-1.7701,-1.7702,0,-1.7779,-1.778,-1.7781,-1.7704,-1.77,-1.7697,-1.7695,-1.7778,-1.7783,-1.7788,0,0,0,0,0,0,0,0,0,0,0,0,0,-1.7488,-1.7493,-1.7701,-1.7702,-1.7703,-1.7779,-1.778,-1.7781,-1.7704,-1.77,-1.7697,-1.7693,-1.7776,-1.7782,-1.7788,0,0,0,0,0,0,0,0,0,0,0,0,0,-1.7575,-1.7494,-1.7701,-1.7674,-1.7672,-1.7779,-1.778,-1.7781,-1.7705,-1.77,-1.7696,-1.7691,-1.7774,-1.7782,-1.7789,-1.7928,0,0,-1.7812,-1.7816,0,0,0,0,0,0,0,0,-1.757,-1.7583,-1.7677,-1.7676,-1.7674,-1.7727,-1.7735,-1.7831,-1.7706,-1.7693,-1.7694,-1.7689,-1.7765,-1.7773,-1.7798,-1.7932,-1.7935,-1.7813,-1.7818,-1.7821,-1.7823,0,0,0,0,0,0,0,-1.7564,-1.7579,-1.7732,-1.7678,-1.7677,-1.7658,-1.7666,-1.7753,-1.7754,-1.7693,-1.7688,-1.7698,-1.7763,-1.7791,-1.7799,-1.7936,-1.7813,-1.7819,-1.7824,-1.7827,-1.8188,-1.8193,0,0,0,0,0,0,-1.7561,-1.7575,-1.7729,-1.7734,-1.761,-1.7666,-1.7674,-1.7715,-1.7752,-1.7754,-1.7702,-1.7694,-1.778,-1.779,-1.7802,-1.7967,-1.7821,-1.7828,-1.7832,-1.8183,-1.8189,-1.8195,0,0,0,0,0,0,-1.7557,-1.7575,-1.7726,-1.7653,-1.7671,-1.7674,-1.7721,-1.7718,-1.7746,-1.7759,-1.7759,-1.773,-1.7777,-1.7791,-1.7897,-1.7969,-1.7831,-1.7838,-1.8177,-1.8185,-1.8192,-1.8298,0,0,0,0,0,0,-1.7551,-1.7574,-1.7626,-1.7655,-1.7675,-1.782,-1.7725,-1.7723,-1.7759,-1.7749,-1.7785,-1.7786,-1.7774,-1.7886,-1.7904,-1.7977,-1.7844,-1.8171,-1.8181,-1.819,-1.8288,-1.8309,-1.8326,0,0,0,0,0,-1.7543,-1.7654,-1.7629,-1.7649,-1.774,-1.7824,-1.7836,-1.7818,-1.7765,-1.7818,-1.7826,-1.7785,-1.7958,-1.7897,-1.7917,-1.7993,-1.8166,-1.8178,-1.8189,-1.828,-1.8305,-1.8325,0,0,0,0,0,0,-1.7635,-1.7657,-1.763,-1.7753,-1.7787,-1.7811,-1.7877,-1.7845,-1.7896,-1.7885,-1.7863,-1.7872,-1.7984,-1.7999,-1.7931,-1.813,-1.8053,-1.8069,-1.8116,-1.8139,-1.8157,-1.8152,-1.785,0,0,0,0,0,-1.7669,-1.7734,-1.775,-1.7857,-1.7875,-1.7873,-1.7909,-1.7893,-1.7928,-1.7942,-1.7958,-1.7995,-1.8057,-1.8099,-1.8157,-1.829,-1.8297,-1.8352,-1.8371,-1.8386,-1.84,-1.8472,-1.8497,-1.8232,-1.8232,-1.8232,0,0,-1.7741,-1.7761,-1.7804,-1.7876,-1.79,-1.797,-1.7886,-1.7963,-1.8014,-1.7954,-1.8055,-1.8068,-1.8107,-1.8227,-1.8281,-1.8244,-1.8475,-1.84,-1.8412,-1.8419,-1.8487,-1.8512,-1.8534,-1.824,-1.8238,-1.8237,0,0,-1.7907,-1.7929,-1.802,-1.8046,-1.8084,-1.8081,-1.8104,-1.8132,-1.8138,-1.8239,-1.8195,-1.8257,-1.8364,-1.8394,-1.8423,-1.8601,-1.8566,-1.862,-1.8719,-1.8789,-1.881,-1.8828,-1.8893,-1.8916,-1.8634,-1.8635,-1.8635,0,-1.7992,-1.8093,-1.8071,-1.8151,-1.8184,-1.8132,-1.8225,-1.8252,-1.8307,-1.8332,-1.8289,-1.8423,-1.8445,-1.8572,-1.8615,-1.8641,-1.8666,-1.8617,-1.8809,-1.8827,-1.8844,-1.8905,-1.8929,-1.8641,-1.864,-1.864,-1.8639,0,-1.8196,-1.8267,-1.8337,-1.839,-1.8432,-1.8518,-1.8509,-1.8554,-1.8534,-1.8537,-1.864,-1.8665,-1.8728,-1.8756,-1.8738,-1.8881,-1.8857,-1.8812,-1.8735,-1.8876,-1.8933,-1.8956,-1.865,-1.8648,-1.8646,-1.8645,0,0,-1.8423,-1.8463,-1.8489,-1.8513,-1.8551,-1.8606,-1.869,-1.8749,-1.8789,-1.8829,-1.8899,-1.8991,-1.895,-1.8983,-1.8968,-1.903,-1.917,-1.8977,-1.8977,-1.9012,-1.933,-1.9364,-1.9391,-1.9146,-1.915,-1.9154,-1.9327,0,-1.8591,-1.8736,-1.8718,-1.8857,-1.8923,-1.8874,-1.8947,-1.8979,-1.8984,-1.9041,-1.9047,-1.9113,-1.9052,-1.9072,-1.9131,-1.914,-1.9233,-1.9127,-1.9213,-1.9216,-1.9205,-1.9421,-1.9458,-1.962,-1.9349,-1.9352,-1.9355,0,-1.8807,-1.8853,-1.8999,-1.9026,-1.9053,-1.9119,-1.9173,-1.9228,-1.9263,-1.9262,-1.93,-1.9273,-1.9359,-1.9279,-1.9397,-1.9326,-1.9359,-1.9369,-1.9375,-1.9383,-1.9295,-1.9436,-1.9671,-1.9696,-1.939,-1.9387,-1.9384,0,-1.8959,-1.9058,-1.9158,-1.9179,-1.9214,-1.9262,-1.9279,-1.9309,-1.9346,-1.9394,-1.9418,-1.9475,-1.9506,-1.9552,-1.9542,-1.9485,-1.9663,-1.9582,-1.9666,-1.9666,-1.9706,-1.9704,-1.9951,-1.9727,-1.9726,-1.9726,-1.9725,0,-1.9149,-1.924,-1.9226,-1.9288,-1.9389,-1.9368,-1.9469,-1.948,-1.9507,-1.9571,-1.9532,-1.9593,-1.9576,-1.9636,-1.9629,-1.9728,-1.9743,-1.9745,-1.9743,-1.9749,-1.9749,-1.9772,-1.9761,-1.9732,-1.9731,-1.973,-1.9728,0,-1.9336,-1.9331,-1.9436,-1.946,-1.9468,-1.9542,-1.9562,-1.9621,-1.9622,-1.9703,-1.9721,-1.9724,-1.9793,-1.9787,-1.9865,-1.986,-1.9983,-1.9967,-1.9971,-1.9968,-2.0052,-2.0045,-2.0323,-2.0359,-2.0111,-2.0113,-2.0115,0,-1.9458,-1.9527,-1.9558,-1.9597,-1.9617,-1.9681,-1.9718,-1.9701,-1.9741,-1.9787,-1.984,-1.9905,-1.9957,-2.0069,-2.0079,-2.0139,-2.0124,-2.0217,-2.0133,-2.0138,-2.0127,-2.0123,-2.013,-2.0235,-2.0237,-2.024,-2.0241,0,-1.9676,-1.967,-1.9724,-1.9779,-1.9825,-1.9867,-1.9906,-1.994,-1.9926,-1.9975,-2.0044,-2.0084,-2.0163,-2.0229,-2.0285,-2.0303,-2.0272,-2.0268,-2.029,-2.0299,-2.0299,-2.0301,-2.0018,-2.0262,-2.026,-2.0258,-2.0257,-2.0256,-1.9835,-1.9894,-1.9925,-1.9988,-2.0014,-2.0051,-2.0107,-2.0115,-2.0173,-2.0235,-2.0221,-2.03,-2.0334,-2.0406,-2.043,-2.0492,-2.0458,-2.0491,-2.0499,-2.0508,-2.0518,-2.0288,-2.0502,-2.0501,-2.0501,-2.05,-2.05,0,-2.0051,-2.0068,-2.0126,-2.0181,-2.0231,-2.0194,-2.0235,-2.0279,-2.0348,-2.0382,-2.0433,-2.0513,-2.0577,-2.0591,-2.0652,-2.0699,-2.0686,-2.0716,-2.0713,-2.0718,-2.0544,-2.0519,-2.0726,-2.0726,-2.0726,-2.0726,-2.0726,-2.0726,-2.017,-2.0268,-2.0265,-2.0377,-2.0393,-2.0469,-2.0496,-2.053,-2.0557,-2.0648,-2.07,-2.0708,-2.0735,-2.0797,-2.0854,-2.0857,-2.0882,-2.0918,-2.0915,-2.0753,-2.073,-2.0709,-2.0685,-2.0924,-2.0924,-2.1084,-2.1086,-2.1087]},{"header":{"parameterUnit":"m.s-1","parameterCategory":1,"la1":30.2991,"la2":30.254,"lo1":-89.0895,"lo2":-89.0444,"dy":0.0017,"dx":0.0017,"nx":28,"ny":28,"refTime":"2024-07-25T09:00:00:Z","depth":0,"parameterNumber":3,"parameterNumberName":"V-component_of_WINDS"},"data":[0,0,0,0,0,0,0,0,0,0,0,0,0,0,0,0,0,0,0,0,0,0,0,0,0,0,0,0,0,0,0,0,0,0,0,0,0,0,0,0,0,0,0,0,0,0,0,0,0,0,0,0,0,0,0,0,0,0,-1.2297,-1.2297,0,-1.2326,-1.2327,-1.2327,-1.2328,-1.2328,-1.2328,-1.2327,-1.2357,-1.2358,-1.2359,0,0,0,0,0,0,0,0,0,0,0,0,0,-1.2241,-1.2242,-1.2297,-1.2297,-1.2298,-1.2326,-1.2327,-1.2327,-1.2328,-1.2328,-1.2327,-1.2327,-1.2357,-1.2358,-1.2359,0,0,0,0,0,0,0,0,0,0,0,0,0,-1.2267,-1.2242,-1.2297,-1.2302,-1.2302,-1.2326,-1.2327,-1.2327,-1.2328,-1.2328,-1.2327,-1.2327,-1.2356,-1.2358,-1.236,-1.238,0,0,-1.2365,-1.2365,0,0,0,0,0,0,0,0,-1.2266,-1.2269,-1.2301,-1.2301,-1.2302,-1.2323,-1.2318,-1.2345,-1.2329,-1.2319,-1.2327,-1.2327,-1.2346,-1.2349,-1.2355,-1.2382,-1.2383,-1.2365,-1.2366,-1.2367,-1.2367,0,0,0,0,0,0,0,-1.2264,-1.2268,-1.2308,-1.2301,-1.2302,-1.2302,-1.2305,-1.2323,-1.2335,-1.2319,-1.232,-1.2323,-1.2347,-1.2354,-1.2356,-1.2383,-1.2365,-1.2366,-1.2367,-1.2368,-1.2427,-1.2428,0,0,0,0,0,0,-1.2261,-1.2267,-1.2308,-1.2309,-1.2282,-1.2304,-1.2307,-1.2317,-1.2335,-1.2337,-1.2323,-1.2323,-1.2351,-1.2354,-1.2357,-1.2382,-1.2367,-1.2368,-1.2369,-1.2427,-1.2427,-1.2428,0,0,0,0,0,0,-1.226,-1.2265,-1.2306,-1.2288,-1.2293,-1.2305,-1.2316,-1.2318,-1.2325,-1.2338,-1.234,-1.2329,-1.2351,-1.2355,-1.2374,-1.2383,-1.2369,-1.237,-1.2426,-1.2427,-1.2428,-1.2432,0,0,0,0,0,0,-1.2259,-1.2265,-1.2273,-1.2288,-1.2294,-1.2323,-1.2317,-1.2319,-1.2328,-1.2327,-1.2343,-1.2345,-1.2351,-1.2372,-1.2376,-1.2385,-1.2372,-1.2425,-1.2426,-1.2427,-1.2431,-1.2433,-1.2434,0,0,0,0,0,-1.2257,-1.2273,-1.2273,-1.2278,-1.2305,-1.2324,-1.2327,-1.2333,-1.2329,-1.2337,-1.2345,-1.2345,-1.2381,-1.2374,-1.2379,-1.2388,-1.2425,-1.2426,-1.2427,-1.243,-1.2432,-1.2434,0,0,0,0,0,0,-1.2258,-1.2275,-1.2276,-1.2297,-1.2309,-1.2324,-1.2334,-1.2335,-1.2349,-1.2348,-1.2355,-1.2358,-1.2377,-1.2385,-1.2376,-1.2409,-1.2403,-1.2405,-1.2403,-1.2405,-1.2407,-1.2404,-1.2373,0,0,0,0,0,-1.2261,-1.2275,-1.2289,-1.2307,-1.2313,-1.2323,-1.2331,-1.2335,-1.2347,-1.2352,-1.2362,-1.2374,-1.2388,-1.2397,-1.2411,-1.2432,-1.2435,-1.2441,-1.2443,-1.2444,-1.2446,-1.2457,-1.2459,-1.2432,-1.2432,-1.2432,0,0,-1.2267,-1.2278,-1.2287,-1.2308,-1.2317,-1.2331,-1.2327,-1.2342,-1.2353,-1.2354,-1.2373,-1.2381,-1.2395,-1.2415,-1.2424,-1.2422,-1.2454,-1.2445,-1.2446,-1.2447,-1.2458,-1.2461,-1.2463,-1.2433,-1.2433,-1.2433,0,0,-1.2285,-1.2295,-1.2311,-1.232,-1.2335,-1.2341,-1.2345,-1.236,-1.2365,-1.2384,-1.2385,-1.2398,-1.2422,-1.2431,-1.2439,-1.2461,-1.2461,-1.2465,-1.2473,-1.2484,-1.2486,-1.2488,-1.2495,-1.2497,-1.2467,-1.2467,-1.2467,0,-1.2291,-1.2313,-1.2319,-1.2334,-1.2343,-1.2345,-1.2361,-1.237,-1.2388,-1.2394,-1.239,-1.242,-1.243,-1.2452,-1.2457,-1.2464,-1.2468,-1.2463,-1.2485,-1.2487,-1.2489,-1.2495,-1.2498,-1.2467,-1.2467,-1.2467,-1.2467,0,-1.2318,-1.2333,-1.2344,-1.2361,-1.2372,-1.2387,-1.2395,-1.2405,-1.2407,-1.2414,-1.2433,-1.2444,-1.246,-1.2465,-1.2468,-1.2488,-1.2486,-1.2484,-1.2478,-1.2492,-1.2498,-1.2501,-1.2468,-1.2467,-1.2467,-1.2467,0,0,-1.2339,-1.2359,-1.2362,-1.237,-1.2386,-1.2397,-1.2412,-1.2428,-1.2435,-1.2448,-1.246,-1.2481,-1.2479,-1.2488,-1.2492,-1.2501,-1.2516,-1.2498,-1.2498,-1.25,-1.2538,-1.2538,-1.2541,-1.2517,-1.2517,-1.2518,-1.2536,0,-1.2358,-1.2385,-1.2391,-1.2414,-1.2427,-1.2429,-1.2442,-1.2453,-1.246,-1.2472,-1.2479,-1.2493,-1.249,-1.2495,-1.2505,-1.2512,-1.2524,-1.2511,-1.2528,-1.2528,-1.2524,-1.2545,-1.2546,-1.2563,-1.2539,-1.2539,-1.2539,0,-1.2384,-1.2397,-1.2421,-1.2435,-1.244,-1.2452,-1.2466,-1.2478,-1.249,-1.2494,-1.2504,-1.2507,-1.2522,-1.2516,-1.2536,-1.2528,-1.2535,-1.254,-1.2541,-1.2542,-1.2534,-1.2546,-1.2569,-1.2571,-1.2544,-1.2543,-1.2543,0,-1.2395,-1.2419,-1.2436,-1.2443,-1.2459,-1.2467,-1.2474,-1.2486,-1.2494,-1.2507,-1.2512,-1.2526,-1.2534,-1.2544,-1.255,-1.2545,-1.2571,-1.2565,-1.2574,-1.2574,-1.2579,-1.2578,-1.2602,-1.2584,-1.2584,-1.2584,-1.2584,0,-1.2416,-1.2431,-1.2441,-1.2452,-1.2468,-1.2474,-1.249,-1.2497,-1.2508,-1.2519,-1.2522,-1.2533,-1.2541,-1.2553,-1.2558,-1.2574,-1.2578,-1.2581,-1.2582,-1.2581,-1.258,-1.2585,-1.2584,-1.2585,-1.2585,-1.2585,-1.2585,0,-1.2431,-1.2439,-1.2458,-1.2472,-1.2475,-1.2487,-1.2498,-1.2508,-1.2515,-1.2529,-1.2533,-1.2543,-1.2557,-1.2565,-1.2583,-1.2586,-1.2604,-1.2604,-1.26,-1.26,-1.2608,-1.2607,-1.2636,-1.264,-1.262,-1.262,-1.262,0,-1.2444,-1.2455,-1.247,-1.2478,-1.2485,-1.2498,-1.2507,-1.2513,-1.2522,-1.2536,-1.2545,-1.2559,-1.2571,-1.2593,-1.2602,-1.2615,-1.2616,-1.2625,-1.2618,-1.2616,-1.2615,-1.2614,-1.2615,-1.2626,-1.2626,-1.2626,-1.2627,0,-1.2465,-1.2468,-1.248,-1.2494,-1.2504,-1.2515,-1.2526,-1.2532,-1.2541,-1.255,-1.2565,-1.2574,-1.2592,-1.2605,-1.2619,-1.2627,-1.2628,-1.2629,-1.2631,-1.263,-1.2626,-1.2627,-1.2602,-1.2628,-1.2628,-1.2628,-1.2628,-1.2628,-1.2479,-1.2489,-1.25,-1.2514,-1.2522,-1.2532,-1.2542,-1.255,-1.2562,-1.2577,-1.258,-1.2595,-1.2606,-1.2625,-1.2633,-1.2644,-1.2642,-1.2646,-1.2647,-1.2648,-1.2648,-1.2625,-1.2647,-1.2647,-1.2647,-1.2647,-1.2647,0,-1.2499,-1.2507,-1.2519,-1.2534,-1.2545,-1.2545,-1.2557,-1.2565,-1.2578,-1.2589,-1.26,-1.2616,-1.263,-1.2639,-1.2653,-1.266,-1.2661,-1.2663,-1.2663,-1.2664,-1.2649,-1.2645,-1.2663,-1.2663,-1.2663,-1.2663,-1.2663,-1.2663,-1.2511,-1.2528,-1.2532,-1.2552,-1.256,-1.2574,-1.2581,-1.259,-1.2598,-1.2616,-1.2627,-1.2633,-1.2643,-1.2657,-1.2669,-1.2672,-1.2677,-1.2679,-1.2681,-1.2667,-1.2665,-1.2664,-1.266,-1.268,-1.268,-1.2695,-1.2695,-1.2695]}]]